Location: Chanteloup
(48.8560°N, 2.7390°E)
Time: 22:11:35
(UTC+00:00)

Cosmos 2322 Rocket - Pass Details

Date: 03 June 2022
Orbit: 833 x 851 km, 71.0° (Epoch: 06 July)

Event Time Altitude Azimuth Distance (km) Brightness Sun altitude
Rises 23:45:20 0° 286° (WNW) 3,382 5.6 -18.7°
Reaches altitude 10° 23:50:37 10° 328° (NNW) 2,454 5.4 -18.7°
Maximum altitude 23:51:24 10° 336° (NNW) 2,435 5.6 -18.7°
Drops below altitude 10° 23:52:12 10° 345° (NNW) 2,456 5.7 -18.7°
Sets 23:57:31 0° 27° (NNE) 3,397 6.5 -18.7°
